Weather in Prosnitsa

Russia / Kirov Oblast     58°26′31″N   50°14′02″E
temp.,
°C
wind,
m/s
gust,
m/s
humid.,
%
clouds,
%
prec.,
mm/h
press.,
hPa
HPBL,
m
28 january, thu
thu2800:00−3ssw61295100 2.0 1014637
03:00−4ssw51194100 3.7 1013542
06:00−5ssw51195100 1.8 1013487
09:00−4ssw41094100 2.7 1013435
12:00−3ssw4896100 0.8 1014432
15:00−3ssw3796100 1.4 1015415
18:00−4sse3796100 1.3 1015307
21:00−6sse3795100 1.9 1015273
29 january, fri
fri2900:00−8sse3795100 0.0 1015272
03:00−9se3796100 0.0 1015218
06:00−10se369699 0.0 1014173
09:00−11se399599 0.1 1014271
12:00−8se489499 0.0 1013356
15:00−7se4894100 0.1 1011406
18:00−7se41094100 0.1 1011462
21:00−9se3995100 0.1 1009281
30 january, sat
sat3000:00−8se3795100 0.1 1008260
03:00−6se3896100 0.9 1006407
06:00−5sse3896100 0.9 1004427
09:00−4s4994100 1.9 1004440
12:00−3s5994100 0.1 1004516
15:00−3sse51192100 0.3 1003718
18:00−3sse51295100 0.4 1002777
21:00−3sse51296100 0.9 1001728
31 january, sun
sun3100:00−3ssw6139099 0.6 1003745
03:00−6ssw51192100 0.7 1006446
06:00−10s399599 0.0 1007258
09:00−9sse4129396 0.0 1008354
12:00−5sse61290100 0.0 1006519
15:000sse71497100 1.1 10031015
18:000s81794100 1.3 10001179
21:00−1s81693100 2.8 9991228
1 february, mon
mon100:00−3sse71492100 0.6 996906
03:00−3s61495100 2.8 994977
06:00−1ssw61290100 1.1 994934
09:00−2sw61394100 1.3 998725
12:00−4wsw71490100 0.2 1004876
15:00−5wsw51188100 0.3 1009783
18:00−8sw4119499 0.1 1013350
21:00−10s259699 0.1 1014141